Simultaneous Nadir Overpasses (SNOs) Predictions

Prediction of SNOs between GOES-17 and NOAA-19 Satellite Orbit:

Table of predicted SNOs for the next 14.0 days since TLE Epoch: 9/23/2023
Index Date Time (GOES-17) GOES-17 Lat,Lon NOAA-19 Lat,Lon Distance(km) Time Diff (sec)
1 09/23/2023 15:45:43 0.01,-104.71 0.03,-104.88 19.68 80
2 09/24/2023 15:36:18 -0.00,-104.71 -0.63,-101.94 315.83 80
3 09/27/2023 03:56:17 0.01,-104.68 -0.47,-106.68 228.90 80
4 09/28/2023 03:41:31 0.01,-104.68 0.22,-103.74 107.19 80
5 09/29/2023 03:29:26 0.01,-104.68 0.91,-100.80 443.36 80
6 09/30/2023 16:01:29 -0.01,-104.71 0.85,-108.49 431.35 80
7 10/01/2023 15:49:24 -0.01,-104.71 0.17,-105.55 95.09 80
8 10/02/2023 15:39:58 -0.01,-104.71 -0.52,-102.60 241.16 80
9 10/05/2023 03:59:55 0.02,-104.70 -0.57,-107.34 301.48 80
10 10/06/2023 03:45:08 0.01,-104.70 0.08,-104.39 34.74 80
